Weather Roundup
Issued by NWS Chicago, IL

Home | Current Version | Previous Version | Text Only | Print | Product List | Glossary On
Versions: 1 2 3 4 5 6 7 8 9 10 11 12 13 14 15 16 17 18 19 20 21 22 23 24 25 26 27 28 29 30 31 32 33 34 35 36 37 38 39 40 41 42 43 44 45 46 47 48 49 50
000
NZUS59 KLOT 222207
HRRLOT

CHICAGO AREA WEATHER ROUNDUP
NATIONAL WEATHER SERVICE CHICAGO/ROMEOVILLE IL
500 PM CDT WED MAR 22 2017

NOTE: "FAIR" INDICATES FEW OR NO CLOUDS BELOW 12,000 FEET WITH NO
SIGNIFICANT WEATHER AND/OR OBSTRUCTIONS TO VISIBILITY.

* THESE STATIONS ARE NOT UNDER NWS QUALITY CONTROL. THEY ALSO MAY NOT
  REPORT WEATHER SUCH AS PRECIPITATION OR FOG.

ILZ005-006-012>014-019>023-222300-
NORTHEAST ILLINOIS

CITY           SKY/WX    TMP DP  RH WIND       PRES   REMARKS
OHARE          MOSUNNY   34  17  50 NE10      30.51F WCI  26
MIDWAY         PTSUNNY   33  17  51 VRB7      30.52F WCI  27
AURORA         SUNNY     40  16  37 NE8       30.49F
LANSING*       SUNNY     33  22  62 NE9       30.52F WCI  26
JOLIET*        SUNNY     38  16  40 NE8       30.50F
WAUKEGAN       SUNNY     29  18  63 NE9       30.53F WCI  20
DUPAGE AIRPORT SUNNY     36  18  48 E10       30.49F
WHEELING       SUNNY     31  18  58 NE8       30.54F WCI  23
KANKAKEE*      SUNNY     41  17  38 E12       30.49F
MORRIS*        SUNNY     39  18  42 E7        30.49S
LEWIS AIRPORT* SUNNY     36  20  53 E8        30.50F
NORTHERLY ISL    N/A     30  18  60 N12         N/A  WCI  21
$$

WIZ051-052-058>065-066-070>072-222300-
SOUTHEAST WISCONSIN

CITY           SKY/WX    TMP DP  RH WIND       PRES   REMARKS
MILWAUKEE      PTSUNNY   32  17  54 E10       30.54F WCI  24
KENOSHA*       SUNNY     31  18  58 E10       30.53F WCI  22
RACINE*        SUNNY     30  17  58 E10       30.55F WCI  21
WAUKESHA       SUNNY     32  16  51 E9        30.52F WCI  24
WEST BEND      MOSUNNY   32  19  59 E8        30.52F WCI  25
$$

INZ001>003-010>013-019-020-222300-
NORTHWEST INDIANA

CITY           SKY/WX    TMP DP  RH WIND       PRES   REMARKS
GARY*          MOSUNNY   34  18  51 NE8       30.54F WCI  27
MICHIGAN CITY* NOT AVBL
RENSSELAER*    NOT AVBL
VALPARAISO     SUNNY     39  20  46 N6        30.50F
$$

LMZ740>746-222300-
SOUTHERN LAKE MICHIGAN

STATION/POSITION TIME  SKY/WX   TEMP WIND        PRES    VSBY
                                AIR  DIR/SP/G
                 (UTC)          (F)  (DEG/KT/KT) (MB)    (MI)
HARRISON CRIB    2140            29   40/ 10/ 11   N/A
BURNHAM HARBOR   2200            30   30/  8/ 11   N/A
CALUMET HARBOR   2130            29   20/  7/ 13 1033.2F
BURNS HARBOR     2140            29   40/  9/ 10 1034.2F
MICHIGAN CITY    2140            29   10/  8/  9   N/A
$$

ABBREVIATIONS USED IN REMARKS
   TC - TEMPERATURE IN CELSIUS
  WCI - WIND CHILL INDEX
   HX - HEAT INDEX
  VSB - VISIBILITY
$$




USA.gov is the U.S. government's official web portal to all federal, state and local government web resources and services.